Hourly Data Report for October 01, 2016

All times are specified in Local Standard Time (LST). Add 1 hour to adjust for Daylight Saving Time where and when it is observed.

ST LEONARD CS
NEW BRUNSWICK

47°09'28.050" N
67°49'55.014" W
245.00 m
810I001
71019
WIY

Download Data

Hourly Data (October 2016)
Hourly Data Report for October 1, 2016
Temp Definition
°C
Dew Point Temp Definition
°C
Rel Hum Definition
%
Wind Dir Definition
10's deg

Wind Spd Definition
km/h
Visibility Definition
km
Stn Press Definition
kPa
Hmdx Definition


Wind Chill Definition


Weather Definition


TIME
00:00 4.2 3.1 93 22 2   100.13     LegendNANA
01:00 3.8 3.1 95 14 3   100.11     LegendNANA
02:00 3.4 2.6 95 8 3   100.10     LegendNANA
03:00 3.2 2.7 97 18 3   100.11     LegendNANA
04:00 1.8 1.4 97 31 3   100.09     LegendNANA
05:00 2.8 2.4 98 3 1   100.07     LegendNANA
06:00 3.1 2.6 97 36 1   100.06     LegendNANA
07:00 3.3 2.8 97 2 2   100.05     LegendNANA
08:00 5.5 4.9 96 29 3   100.04     LegendNANA
09:00 7.5 5.8 89 26 3   100.08     LegendNANA
10:00 11.3 7.0 75 26 4   100.05     LegendNANA
11:00 13.3 7.5 68 22 3   100.01     LegendNANA
12:00 16.1 8.6 61 27 3   99.94     LegendNANA
13:00 16.4 9.2 62 23 8   99.88     LegendNANA
14:00 17.3 8.0 54 24 4   99.80     LegendNANA
15:00 18.3 8.8 54 21 4   99.74     LegendNANA
16:00 17.6 8.2 54 21 8   99.71     LegendNANA
17:00 16.5 10.0 65 19 6   99.66     LegendNANA
18:00 14.5 9.5 72 20 5   99.65     LegendNANA
19:00 11.6 9.4 87 0 1   99.64     LegendNANA
20:00 10.2 8.9 92 0 1   99.63     LegendNANA
21:00 9.4 8.4 93 11 2   99.59     LegendNANA
22:00 8.9 7.9 93 14 5   99.56     LegendNANA
23:00 8.8 8.0 95 6 1   99.53     LegendNANA

Notes on Data Quality.

Legend

  • E = Estimated
  • M = Missing
  • NA = Not Available
  • ‡ = Partner data that is not subject to review by the National Climate Archives
Date modified: